This demonstration page uses our WeatherBlox Daily Observations layout. Learn more.

Left ArrowRight Arrow

Hourly Observations for November 9, 2018

Temp ( °F °C ) Dew Point ( °F °C ) Humidity (%) Winds ( mph kmh ) Pressure ( in mb ) Visibility ( mi km ) Precip ( " mm )
12:53 am 00:53 Cloudy 48 8.9 45 7.2 89 89 NE 12 19 30.18 1022 9 14 0.00 0.00
1:01 am 01:01 Cloudy 48 8.9 44 6.7 86 86 NE 16 26 30.24 1024 10 16 0.00 0.00
1:45 am 01:45 Cloudy 47 8.3 42 5.6 83 83 NE 18 30 30.24 1024 10 16 0.00 0.00
1:53 am 01:53 Cloudy 47 8.3 41 5 80 80 ENE 18 30 30.19 1022 10 16 0.00 0.00
2:07 am 02:07 Cloudy 47 8.3 41 5 80 80 NE 16 26 30.24 1024 10 16 0.00 0.00
2:53 am 02:53 Cloudy 47 8.3 41 5 80 80 NE 13 20 30.19 1022 10 16 0.00 0.00
3:53 am 03:53 Cloudy 47 8.3 40 4.4 77 77 NE 13 20 30.18 1022 10 16 0.00 0.00
4:53 am 04:53 Cloudy 46 7.8 39 3.9 77 77 NE 10 17 30.22 1023 10 16 0.00 0.00
5:37 am 05:37 Cloudy 45 7.2 38 3.3 77 77 NE 12 19 30.30 1026 10 16 0.00 0.00
5:53 am 05:53 Cloudy 45 7.2 38 3.3 77 77 NE 13 20 30.24 1024 10 16 0.00 0.00
6:53 am 06:53 Cloudy 43 6.1 36 2.2 76 76 NNE 13 20 30.29 1026 10 16 0.00 0.00
7:03 am 07:03 Cloudy 42 5.6 36 2.2 79 79 NNE 10 17 30.36 1028 10 16 0.00 0.00
7:53 am 07:53 Cloudy 42 5.6 35 1.7 76 76 NNE 12 19 30.32 1027 10 16 0.00 0.00
8:33 am 08:33 Cloudy 42 5.6 35 1.7 76 76 NNE 9 15 30.39 1029 10 16 0.00 0.00
8:53 am 08:53 Cloudy 43 6.1 35 1.7 74 74 NE 12 19 30.35 1028 10 16 0.00 0.00
9:53 am 09:53 Cloudy 44 6.7 35 1.7 71 71 NE 7 11 30.37 1028 10 16 0.00 0.00
10:53 am 10:53 Cloudy 46 7.8 35 1.7 66 66 NE 12 19 30.37 1028 10 16 0.00 0.00
11:53 am 11:53 Cloudy 48 8.9 35 1.7 61 61 E 9 15 30.35 1028 10 16 0.00 0.00
12:43 pm 12:43 Mostly Sunny 50 10 35 1.7 57 57 VRB 7 11 30.39 1029 10 16 0.00 0.00
12:53 pm 12:53 Mostly Sunny 49 9.4 35 1.7 59 59 E 5 7 30.34 1027 10 16 0.00 0.00
1:53 pm 13:53 Sunny 53 11.7 35 1.7 51 51 ENE 8 13 30.30 1026 10 16 0.00 0.00
2:53 pm 14:53 Sunny 57 13.9 30 -1.1 36 36 E 13 20 30.27 1025 10 16 0.00 0.00
3:53 pm 15:53 Sunny 57 13.9 29 -1.7 34 34 E 10 17 30.27 1025 10 16 0.00 0.00
4:53 pm 16:53 Sunny 55 12.8 24 -4.4 30 30 E 14 22 30.29 1026 10 16 0.00 0.00
5:53 pm 17:53 Sunny 51 10.6 26 -3.3 38 38 E 7 11 30.32 1027 10 16 0.00 0.00
6:53 pm 18:53 Clear 46 7.8 29 -1.7 51 51 ESE 6 9 30.35 1028 10 16 0.00 0.00
7:53 pm 19:53 Clear 43 6.1 29 -1.7 58 58 E 7 11 30.37 1029 10 16 0.00 0.00
8:53 pm 20:53 Clear 44 6.7 29 -1.7 55 55 ESE 8 13 30.37 1029 10 16 0.00 0.00
9:53 pm 21:53 Clear 40 4.4 30 -1.1 68 68 E 7 11 30.38 1029 10 16 0.00 0.00
10:53 pm 22:53 Partly Cloudy 40 4.4 30 -1.1 68 68 E 7 11 30.38 1029 10 16 0.00 0.00
11:53 pm 23:53 Mostly Cloudy 42 5.6 30 -1.1 62 62 ESE 10 17 30.37 1028 10 16 0.00 0.00

Powered by AerisWeather